Wind_Speed
18 16 15 14 13 13 12 13 13 14 14 15 15 17 18 18 19 19 20 20 20 20 20 20 21 21 22 22 21 21 22 22 22 23 24 25 27 28 27 27 27 28 30
17 15 14 14 14 13 13 12 12 13 13 14 15 16 17 17 17 18 18 19 19 20 20 20 21 21 21 21 20 21 21 21 22 22 23 25 25 26 25 26 27 28 29
15 15 14 14 13 13 12 12 12 12 13 14 15 15 15 15 16 17 17 17 18 19 19 20 20 20 20 20 20 20 20 21 21 21 22 24 24 24 24 26 27 28 28
15 14 14 13 13 13 12 11 11 12 13 15 15 14 15 15 15 16 16 16 17 18 18 19 20 20 20 20 19 19 19 20 20 21 21 22 22 23 23 25 26 26 27
15 14 14 14 13 13 12 12 12 13 14 15 15 15 15 16 15 14 15 16 17 18 19 20 20 20 20 19 18 18 19 19 19 20 20 20 21 22 22 24 25 26 27
15 14 13 13 13 13 12 12 12 13 15 15 15 15 16 16 15 15 16 16 18 19 20 20 20 20 20 19 18 18 18 19 19 20 21 21 22 22 23 23 24 25 25
15 14 13 13 13 13 12 12 13 14 14 14 14 15 15 15 15 15 16 18 19 20 20 21 20 19 19 18 18 18 18 18 19 20 21 22 22 23 23 23 24 24 25
15 14 13 13 12 13 13 13 13 13 14 14 15 15 15 15 15 16 18 19 19 20 21 21 21 20 19 19 18 19 18 18 20 21 21 21 21 21 22 23 24 24 25
15 14 13 13 12 13 13 13 13 14 14 14 15 15 15 16 16 17 18 19 20 21 21 21 21 22 21 20 20 20 19 19 20 21 21 21 21 22 23 23 24 24 25
14 13 13 13 13 14 14 13 13 14 14 15 15 15 16 16 17 18 19 20 21 21 21 22 22 22 21 21 20 20 19 19 20 21 21 22 23 23 24 24 24 24 25
13 13 13 12 12 13 13 14 14 14 14 14 15 15 16 16 17 18 19 20 21 21 22 22 22 22 21 21 21 20 20 20 20 21 22 22 23 23 24 24 24 24 25
13 13 13 13 13 13 13 13 14 14 14 14 15 16 16 17 18 18 19 20 21 22 22 23 22 22 22 22 22 22 21 21 21 21 22 22 22 23 23 23 24 23 24
13 13 13 13 13 12 13 13 14 15 15 14 15 16 16 17 18 19 20 20 21 22 23 23 23 22 22 23 23 23 23 22 22 22 23 23 23 22 23 23 23 23 23
13 13 13 13 13 13 13 13 14 14 14 15 16 17 18 18 19 19 20 21 22 22 23 23 23 23 23 24 24 24 24 23 23 23 23 23 22 22 22 22 22 21 21
13 13 13 13 13 13 14 13 14 15 15 16 16 17 18 18 19 20 21 22 22 22 23 23 24 24 24 24 24 25 25 25 24 23 23 22 21 20 21 21 20 20 20
14 13 13 13 13 13 13 14 14 15 16 16 16 17 18 19 19 20 21 21 22 22 23 24 24 25 25 25 25 26 25 25 24 23 23 22 21 20 20 20 20 20 19
13 13 13 12 12 12 13 14 14 14 15 16 17 18 18 19 20 20 21 22 22 23 24 25 25 26 26 26 26 26 25 25 25 25 24 23 22 21 21 20 20 20 19
14 13 13 12 13 12 13 13 14 14 15 16 17 18 18 19 19 20 21 22 23 24 25 25 26 27 27 26 26 26 26 26 25 25 24 23 22 21 21 21 20 19 18
14 13 13 12 13 13 13 14 14 14 15 15 16 17 18 19 20 20 21 22 23 24 25 26 27 27 27 26 26 26 26 26 25 25 25 24 23 21 21 20 19 19 18
14 14 13 13 13 13 13 13 14 14 15 15 16 17 18 19 20 21 22 23 24 25 25 27 27 27 27 27 27 27 26 25 25 25 25 24 23 22 21 20 19 18 17
14 14 14 14 13 13 13 13 14 14 15 16 17 18 19 20 21 22 23 24 24 25 26 27 27 27 27 27 28 27 27 26 26 25 25 24 23 22 21 20 19 18 17
15 15 14 14 14 14 13 13 13 13 14 16 17 18 19 20 20 22 23 24 25 26 26 27 27 27 27 27 28 28 27 26 25 25 24 24 22 22 21 20 19 18 17
15 15 15 15 15 14 13 13 13 14 15 16 18 19 19 20 21 22 23 25 26 26 26 27 27 28 28 28 28 27 27 25 25 24 23 22 22 21 20 19 19 18 17
16 15 15 15 14 14 13 14 14 14 15 17 18 19 19 20 22 23 24 25 25 26 26 27 27 28 28 28 27 27 26 25 24 24 23 22 22 20 19 19 18 18 18
17 16 15 15 14 14 14 14 14 15 16 18 19 20 20 21 22 23 23 24 25 26 27 27 28 28 28 28 27 27 26 25 24 23 22 22 21 20 19 18 18 18 18
17 17 16 16 15 15 15 15 15 16 17 18 19 20 20 21 22 22 23 24 25 26 27 27 27 28 28 28 27 26 25 25 23 22 22 21 20 19 18 18 17 17 16
Wind_Direction
330 330 330 329 325 319 317 314 313 312 308 305 304 302 301 303 303 304 305 303 303 302 302 299 295 292 288 287 284 282 282 281 280 279 279 277 275 271 267 264 261 259 258
332 333 331 331 330 327 325 320 320 319 318 317 314 310 308 307 306 306 306 307 307 306 306 303 300 298 293 290 287 284 284 284 284 281 281 280 278 274 267 264 263 261 260
336 336 333 332 330 331 331 329 328 326 326 324 322 319 316 313 312 311 310 312 313 312 312 310 308 303 299 295 292 289 287 284 283 283 283 282 280 275 269 266 265 263 261
337 336 337 337 337 336 332 332 333 333 331 329 327 325 323 320 317 314 313 317 318 318 319 318 315 310 305 299 294 291 289 288 288 287 288 285 282 277 272 269 267 264 261
336 336 338 339 337 336 335 334 335 334 334 333 332 331 329 326 325 322 322 324 326 326 324 323 320 316 313 307 300 296 293 294 294 292 291 289 285 280 275 272 270 267 264
337 337 339 339 338 339 339 338 336 336 335 335 334 333 333 333 333 329 329 329 330 329 329 327 324 320 316 311 306 302 298 297 297 296 296 294 290 284 278 275 273 270 267
336 336 335 334 338 341 342 340 336 336 337 339 339 341 339 335 335 335 334 332 331 331 330 328 326 324 320 316 310 306 303 301 300 300 299 296 292 287 282 278 275 273 271
331 330 330 331 333 338 338 337 336 336 338 340 340 341 340 338 338 338 337 336 334 332 331 330 328 325 320 318 312 307 303 301 301 301 299 297 295 292 288 283 278 276 274
329 326 326 328 330 335 336 335 337 337 338 341 343 341 340 339 338 339 339 338 336 334 334 333 331 328 325 322 317 310 304 302 304 305 304 301 298 296 292 287 281 277 276
327 325 322 323 327 331 334 336 339 340 342 343 343 342 342 340 340 339 340 340 339 338 338 338 337 335 333 330 326 321 313 308 307 308 306 303 300 298 295 290 285 281 279
327 326 324 326 328 333 336 340 341 341 341 341 342 342 342 343 342 340 339 340 340 341 341 339 338 336 335 334 331 327 321 316 312 309 308 306 302 300 297 292 288 285 282
323 324 326 328 329 332 336 340 341 340 339 339 340 340 341 341 341 340 339 339 340 340 340 339 338 337 337 336 334 331 327 324 320 316 313 309 305 302 299 295 291 288 286
319 320 324 327 329 330 333 336 337 336 336 336 337 338 338 338 339 340 340 339 339 340 339 339 339 338 338 338 336 334 332 328 325 322 319 315 311 307 303 299 295 292 292
318 319 321 325 325 325 326 330 332 334 336 336 336 337 338 338 338 339 340 340 340 341 341 340 339 338 337 337 336 335 333 330 327 326 325 321 316 313 309 306 302 301 298
314 316 318 320 322 322 323 327 330 334 336 335 334 336 337 338 338 338 340 342 343 343 343 342 341 340 338 337 336 335 335 333 330 328 327 325 321 318 316 312 310 309 305
307 310 314 317 318 319 323 327 328 330 333 333 333 334 337 338 340 341 343 343 344 344 344 344 343 342 341 339 337 336 336 335 334 332 329 326 322 319 315 313 312 311 308
301 303 306 312 315 318 323 329 331 331 333 334 334 334 335 337 339 340 342 342 344 345 344 343 343 343 342 340 338 337 337 337 336 335 332 328 324 319 315 313 314 314 310
296 297 300 306 310 314 319 326 330 331 332 333 334 335 335 337 338 339 340 341 343 345 344 343 342 342 342 340 340 339 339 338 339 338 336 333 328 323 318 315 316 316 313
291 292 294 300 305 309 315 321 325 329 332 335 337 337 338 339 338 338 339 340 342 343 343 343 343 343 342 342 341 339 338 337 337 339 339 337 334 330 326 323 321 319 318
288 288 290 294 299 304 310 314 319 325 330 335 336 336 337 338 340 340 338 338 339 339 340 341 341 342 343 342 341 340 339 338 338 339 340 338 335 333 331 329 328 325 323
286 286 287 291 296 300 306 310 313 318 324 331 335 337 337 338 340 341 339 338 337 337 338 339 340 341 342 342 341 340 339 338 337 337 338 337 336 337 337 335 334 331 325
283 283 284 288 293 296 299 304 309 314 322 328 332 335 336 337 338 340 340 339 339 339 338 339 340 340 340 340 341 341 340 339 338 336 336 337 337 338 340 341 341 338 332
280 280 281 284 288 292 294 298 303 311 318 324 328 331 334 335 335 337 338 339 340 340 340 340 340 340 340 340 341 341 341 340 339 339 339 339 339 339 340 341 342 341 339
277 278 279 281 285 288 291 294 299 306 313 321 326 329 331 333 335 337 338 339 340 340 341 341 341 341 341 342 342 342 342 340 340 339 339 340 340 339 339 340 341 341 341
273 274 276 279 281 283 287 291 295 303 310 317 321 325 329 332 334 336 337 338 339 340 341 341 342 343 343 342 341 342 342 341 341 341 342 342 342 342 341 341 342 343 343
271 273 274 275 276 279 284 291 296 301 307 312 318 322 326 329 331 333 335 337 339 339 340 342 343 344 344 343 342 341 342 343 344 344 345 345 344 344 344 344 345 346 346
Height
5758 5755 5752 5750 5747 5744 5742 5739 5737 5735 5732 5730 5728 5726 5723 5720 5718 5715 5713 5710 5707 5704 5701 5699 5696 5694 5692 5689 5687 5686 5684 5682 5681 5680 5678 5677 5676 5674 5674 5673 5674 5674 5675
5756 5753 5750 5747 5745 5742 5739 5737 5734 5732 5729 5727 5724 5721 5718 5716 5713 5710 5707 5705 5702 5699 5696 5693 5690 5687 5685 5683 5681 5679 5677 5675 5674 5672 5671 5669 5667 5666 5665 5665 5665 5665 5666
5754 5751 5748 5745 5743 5740 5737 5735 5732 5729 5727 5724 5720 5717 5714 5711 5708 5705 5703 5700 5697 5694 5691 5687 5684 5681 5678 5676 5674 5672 5670 5668 5666 5665 5663 5661 5659 5658 5657 5656 5656 5656 5656
5753 5750 5747 5744 5741 5738 5735 5733 5730 5727 5724 5721 5718 5714 5711 5708 5705 5702 5699 5696 5693 5689 5686 5682 5679 5675 5672 5670 5668 5666 5664 5662 5659 5657 5655 5653 5651 5649 5649 5648 5648 5647 5648
5751 5748 5745 5742 5739 5737 5734 5731 5728 5725 5722 5718 5715 5712 5708 5705 5701 5698 5695 5692 5689 5685 5681 5678 5674 5670 5667 5664 5662 5660 5658 5655 5653 5650 5648 5646 5644 5642 5641 5640 5639 5639 5639
5749 5746 5743 5740 5737 5735 5732 5729 5726 5723 5720 5716 5713 5709 5705 5702 5699 5695 5692 5689 5685 5681 5677 5674 5670 5666 5662 5659 5656 5654 5652 5649 5647 5644 5642 5639 5637 5635 5633 5632 5631 5631 5630
5747 5744 5742 5739 5736 5733 5730 5727 5724 5721 5718 5714 5711 5707 5703 5700 5696 5693 5689 5686 5682 5678 5674 5670 5666 5661 5657 5654 5651 5648 5646 5643 5641 5638 5635 5632 5629 5627 5626 5624 5623 5622 5621
5745 5743 5740 5737 5735 5731 5729 5726 5722 5719 5715 5712 5708 5704 5701 5697 5694 5691 5687 5682 5678 5674 5670 5666 5661 5657 5653 5649 5646 5643 5640 5637 5635 5632 5629 5626 5622 5620 5618 5616 5614 5613 5612
5743 5741 5738 5735 5732 5730 5727 5724 5720 5717 5713 5710 5706 5703 5699 5695 5691 5688 5684 5679 5675 5671 5667 5662 5657 5653 5648 5644 5641 5638 5635 5632 5628 5625 5622 5619 5616 5613 5610 5608 5606 5605 5603
5741 5738 5736 5733 5731 5728 5725 5722 5718 5715 5711 5708 5704 5701 5697 5693 5689 5685 5681 5677 5672 5668 5663 5658 5654 5649 5644 5640 5636 5632 5629 5626 5622 5619 5616 5612 5609 5605 5602 5600 5598 5596 5595
5739 5736 5733 5731 5729 5726 5723 5720 5716 5713 5709 5706 5703 5699 5695 5691 5687 5683 5679 5674 5669 5665 5660 5655 5650 5645 5640 5636 5631 5627 5623 5620 5616 5612 5609 5606 5602 5598 5595 5592 5589 5587 5586
5736 5734 5731 5729 5726 5723 5720 5717 5714 5711 5707 5704 5700 5697 5693 5689 5685 5680 5676 5671 5666 5662 5657 5652 5647 5642 5637 5632 5627 5623 5618 5614 5610 5606 5602 5599 5595 5592 5588 5585 5582 5579 5577
5734 5731 5729 5726 5724 5721 5718 5715 5712 5708 5705 5702 5698 5694 5691 5687 5682 5678 5673 5668 5663 5659 5653 5648 5643 5638 5633 5628 5623 5618 5614 5609 5605 5601 5596 5593 5589 5585 5581 5578 5574 5571 5569
5731 5729 5726 5724 5721 5719 5716 5713 5710 5706 5702 5699 5696 5692 5688 5684 5680 5675 5671 5666 5661 5655 5650 5645 5640 5635 5630 5625 5620 5614 5610 5605 5600 5596 5591 5586 5582 5578 5574 5571 5568 5564 5562
5728 5726 5724 5721 5719 5716 5713 5710 5707 5704 5700 5697 5693 5690 5686 5682 5677 5673 5668 5663 5658 5653 5647 5642 5637 5632 5626 5621 5616 5611 5605 5600 5595 5590 5586 5581 5577 5573 5569 5565 5562 5558 5555
5725 5723 5721 5719 5716 5714 5711 5708 5704 5701 5698 5694 5691 5687 5683 5679 5675 5670 5666 5661 5655 5650 5645 5639 5634 5628 5623 5617 5612 5607 5602 5596 5591 5586 5581 5576 5572 5568 5564 5560 5556 5553 5550
5722 5720 5718 5716 5713 5711 5708 5705 5702 5699 5695 5692 5688 5684 5680 5676 5672 5668 5663 5658 5653 5647 5642 5636 5631 5625 5619 5614 5608 5603 5598 5593 5587 5581 5576 5571 5567 5563 5559 5555 5551 5548 5544
5718 5716 5714 5712 5710 5708 5705 5702 5699 5696 5693 5689 5686 5682 5678 5674 5669 5665 5660 5656 5650 5645 5639 5633 5628 5622 5616 5611 5605 5599 5594 5588 5583 5577 5572 5566 5562 5557 5553 5549 5545 5542 5539
5713 5712 5710 5708 5706 5704 5702 5699 5697 5694 5690 5687 5683 5679 5675 5671 5667 5662 5658 5653 5647 5642 5636 5631 5625 5619 5613 5607 5601 5596 5590 5584 5578 5573 5567 5562 5557 5552 5548 5544 5540 5537 5533
5709 5707 5706 5705 5703 5701 5698 5696 5694 5691 5688 5684 5681 5677 5673 5668 5664 5659 5655 5650 5645 5639 5633 5628 5622 5616 5610 5604 5598 5592 5586 5580 5574 5569 5563 5558 5553 5548 5543 5539 5535 5532 5529
5704 5703 5702 5700 5699 5697 5695 5693 5690 5688 5685 5682 5678 5674 5670 5666 5661 5656 5652 5647 5641 5636 5630 5625 5619 5612 5606 5600 5594 5588 5582 5576 5570 5565 5559 5554 5549 5544 5539 5535 5531 5528 5525
5699 5698 5697 5696 5694 5693 5691 5689 5687 5684 5682 5679 5675 5671 5667 5663 5659 5654 5649 5644 5638 5633 5627 5621 5615 5609 5603 5597 5591 5584 5578 5572 5566 5561 5555 5550 5545 5540 5536 5532 5528 5525 5521
5693 5692 5692 5691 5690 5688 5687 5685 5683 5681 5678 5675 5672 5668 5664 5660 5656 5651 5646 5641 5635 5629 5623 5618 5612 5606 5599 5593 5587 5580 5574 5568 5563 5557 5551 5547 5542 5537 5533 5529 5526 5522 5519
5688 5687 5687 5686 5685 5684 5682 5681 5679 5677 5674 5671 5668 5664 5661 5656 5652 5647 5643 5637 5632 5626 5620 5614 5608 5602 5596 5590 5583 5577 5570 5564 5558 5553 5548 5543 5539 5535 5531 5527 5524 5520 5517
5682 5682 5681 5680 5680 5679 5678 5676 5675 5673 5670 5667 5664 5661 5657 5653 5648 5644 5639 5634 5629 5623 5617 5611 5605 5599 5592 5586 5579 5573 5567 5560 5555 5550 5545 5541 5537 5533 5529 5525 5522 5518 5515
5676 5676 5675 5675 5674 5674 5673 5671 5670 5668 5666 5663 5660 5657 5653 5649 5644 5640 5636 5631 5626 5620 5614 5608 5602 5596 5589 5582 5576 5570 5564 5558 5552 5547 5543 5539 5535 5531 5527 5523 5520 5517 5513